Temp
19 20 21 20 20 19 19 17 16 17 17 17 16 17 17 16 16 16 17 17 17 18 19 19 19 19 21 21 20 20 21 21 22 20 20 19 19 18 19 19 19 18 19
19 19 18 17 17 17 18 17 16 16 17 17 16 16 15 15 16 16 17 18 18 17 18 18 18 19 18 19 20 19 20 20 21 20 20 20 19 19 18 18 19 20 20
19 18 18 17 17 17 17 16 16 16 16 15 16 15 16 16 16 16 17 17 17 17 18 18 18 17 18 20 19 20 20 20 20 21 21 21 20 20 20 19 19 20 19
18 17 17 17 17 16 15 16 15 15 15 15 16 16 16 16 16 16 16 17 17 17 18 18 18 18 19 18 19 19 19 19 20 20 21 22 21 20 20 20 21 21 22
16 16 16 16 15 15 15 15 15 15 16 16 16 16 15 16 17 16 17 17 17 18 18 18 18 18 18 18 19 19 19 19 21 21 22 22 22 22 22 22 21 21 21
16 15 15 15 15 15 15 15 15 15 16 16 16 16 16 18 17 16 17 18 18 18 18 18 18 17 17 17 17 18 17 18 18 20 21 22 20 20 21 21 21 21 21
16 15 16 16 16 16 16 16 16 16 15 16 16 16 17 18 17 17 17 18 18 19 19 19 19 20 18 18 17 17 17 17 17 17 18 19 19 20 19 19 20 20 20
17 17 16 16 17 16 16 16 17 17 17 17 17 17 17 17 17 16 16 17 18 18 18 19 19 19 19 18 18 19 19 19 18 17 18 18 18 19 18 18 18 18 18
17 17 17 17 16 16 16 17 17 17 17 17 18 17 17 18 17 17 17 17 18 18 19 18 19 19 18 18 17 18 19 19 20 19 19 19 18 18 18 17 19 20 20
18 17 16 17 17 17 17 17 17 17 18 19 18 18 18 18 17 17 17 18 20 20 19 19 18 18 18 17 17 18 18 19 20 20 18 18 18 18 18 17 17 19 20
19 18 18 17 17 17 17 17 17 17 19 18 18 18 18 18 18 17 17 17 19 20 21 21 21 20 19 18 17 18 19 19 19 19 19 20 21 21 20 19 18 17 18
19 19 18 18 18 18 17 17 17 17 18 18 18 18 19 18 18 17 17 17 18 19 20 21 22 20 19 19 18 19 19 18 18 19 20 20 20 20 21 20 19 18 17
19 19 18 18 18 19 18 18 18 18 19 19 20 20 20 20 19 18 18 18 18 17 19 20 20 20 19 19 19 19 18 17 18 20 20 19 19 20 20 19 18 17 15
19 19 19 19 19 19 19 19 20 20 20 21 21 21 22 22 21 21 19 19 19 18 18 18 19 19 19 20 19 18 17 17 17 19 19 19 20 19 19 18 17 17 17
20 20 20 20 19 20 19 20 20 20 21 21 22 22 22 22 22 22 21 22 22 21 20 21 21 21 22 22 22 21 20 19 19 18 19 19 19 18 17 17 17 16 17
21 21 22 22 21 21 21 20 20 20 19 19 19 19 20 20 20 20 19 19 19 19 18 19 21 22 22 22 22 21 21 20 19 19 18 18 17 18 17 17 17 17 17
21 22 22 22 23 22 22 22 22 20 19 19 19 19 18 19 20 19 19 18 18 18 17 21 22 22 22 21 21 21 20 20 18 17 18 18 17 17 16 16 16 16 15
20 21 22 23 22 23 23 22 22 22 22 22 20 19 19 20 20 19 19 17 16 17 17 21 22 22 21 21 20 20 19 19 18 17 17 17 16 16 15 15 15 15 14
20 22 22 22 22 22 21 22 22 22 22 23 23 20 20 20 19 19 18 16 20 21 22 22 21 21 21 20 19 19 18 18 17 17 16 16 15 15 15 15 14 12 12
22 22 22 21 21 22 21 21 21 21 22 23 23 23 22 19 19 20 17 17 19 21 22 22 22 20 20 19 19 18 17 17 16 16 15 16 16 16 16 16 16 15 14
23 23 21 21 22 22 21 20 20 21 21 23 23 23 22 21 22 23 23 22 21 21 22 22 21 21 19 19 18 17 17 17 17 17 16 16 16 16 15 15 14 14 14
23 23 23 22 23 22 23 23 22 22 23 24 23 23 22 21 21 22 22 22 22 22 21 21 20 20 20 19 18 17 17 17 17 16 16 15 15 15 14 14 14 13 13
24 24 23 23 21 22 23 23 23 24 24 24 24 24 24 22 22 22 22 22 22 22 21 21 20 20 19 18 18 17 17 17 16 16 15 15 15 14 14 14 13 13 12
24 24 24 24 24 25 24 23 24 24 23 24 24 24 24 24 24 24 24 23 23 22 22 21 20 20 19 18 17 17 17 16 16 15 14 13 14 14 13 13 13 12 11
24 24 25 24 24 24 23 23 24 24 24 25 25 25 24 24 24 24 24 24 23 22 22 21 20 19 18 18 18 18 17 16 14 13 12 12 13 13 13 13 12 11 11
24 24 24 24 24 24 23 24 24 24 24 25 25 25 24 24 24 24 24 23 23 22 22 21 20 18 18 18 18 17 16 14 13 12 11 11 12 12 12 12 12 11 11
Height
789 791 792 792 795 804 813 815 820 823 823 823 827 825 829 832 836 839 839 839 840 841 842 843 844 845 844 845 846 847 847 847 844 847 847 849 850 850 848 849 848 848 844
786 788 794 800 804 805 812 813 819 819 819 820 823 825 829 832 833 836 837 838 839 840 842 843 844 844 844 845 847 849 848 849 846 848 848 847 850 849 850 847 847 846 844
785 789 790 794 800 802 805 811 813 814 816 819 822 825 828 829 832 835 836 837 840 840 843 843 843 844 844 847 847 848 847 848 849 847 844 845 846 847 847 846 845 844 842
781 786 789 794 798 802 805 808 811 812 815 819 823 825 827 830 832 834 836 838 840 840 841 842 841 843 844 846 847 848 848 848 847 847 843 842 842 844 844 842 840 837 837
781 783 788 794 799 804 804 807 810 813 816 819 821 824 826 829 830 833 835 838 838 839 841 841 842 843 842 844 845 844 845 847 844 841 840 841 841 838 837 837 837 836 835
783 785 788 793 799 802 806 808 811 813 815 817 820 823 826 827 827 832 835 836 838 840 840 840 839 840 841 841 841 843 844 847 845 843 840 837 841 841 838 837 836 834 833
786 788 789 793 799 802 805 807 810 812 815 818 821 824 827 827 829 833 835 836 837 836 836 836 836 836 838 837 839 842 842 842 844 845 843 840 840 840 840 838 836 834 832
787 791 789 791 797 802 805 807 810 812 815 818 821 823 826 827 828 831 833 833 832 832 832 833 834 834 835 836 837 837 838 838 839 840 839 838 838 837 837 835 833 832 828
789 791 789 792 798 801 804 806 809 812 815 817 819 821 823 824 825 827 828 828 828 831 832 831 831 831 831 833 835 835 834 833 832 832 832 833 832 831 830 831 828 824 819
784 790 790 794 797 800 803 805 808 811 812 813 817 819 820 821 823 824 825 827 827 827 826 826 826 827 829 829 830 829 828 828 827 827 827 826 824 823 823 823 823 821 816
783 788 790 794 798 800 802 805 807 809 811 814 815 816 818 819 820 822 824 825 824 822 821 819 819 821 822 823 823 824 822 822 822 822 821 818 816 815 814 813 815 815 813
783 788 792 795 797 799 802 805 807 809 811 812 813 814 813 816 817 818 819 820 821 820 817 814 814 815 817 817 817 816 815 816 817 815 813 812 812 810 808 808 808 807 807
783 787 790 794 796 798 801 803 805 807 806 807 806 808 807 807 811 812 813 813 814 814 813 811 811 811 811 811 810 809 809 810 809 808 806 806 805 802 801 801 801 801 801
782 785 788 791 794 796 798 799 799 799 801 801 800 800 799 800 801 803 805 806 807 807 806 806 805 805 805 804 804 803 803 803 803 801 800 798 797 796 796 796 796 795 795
780 782 785 786 790 791 793 793 793 794 794 794 794 794 794 794 794 795 797 798 799 800 801 800 799 798 796 795 795 795 796 796 796 795 794 792 792 792 792 791 790 792 790
777 778 778 780 782 785 786 789 790 790 792 793 793 793 793 793 792 794 795 795 795 795 796 795 792 790 789 788 788 788 789 788 789 790 789 789 789 787 787 786 785 785 785
773 773 774 777 776 778 780 780 780 782 784 787 787 788 788 789 789 789 790 789 789 790 789 787 785 782 782 782 783 783 783 783 784 787 786 784 784 783 783 782 782 780 781
769 770 770 770 772 772 773 774 775 775 776 776 777 778 780 781 782 783 783 783 783 780 781 779 776 776 776 776 777 778 778 779 780 781 780 780 780 778 778 777 775 775 777
763 764 766 766 767 769 771 769 770 770 770 770 769 771 773 774 775 775 774 773 773 771 769 769 769 769 770 770 771 772 774 774 775 775 775 775 775 773 772 772 771 773 773
755 757 758 760 763 763 766 767 767 766 763 764 763 762 762 766 768 767 765 766 764 763 761 760 761 762 762 763 764 766 767 768 769 769 769 768 767 767 766 765 764 766 766
746 748 751 755 756 756 758 760 759 758 756 754 754 755 757 759 759 757 755 755 756 755 753 752 752 753 755 756 756 758 759 759 759 760 761 761 761 760 760 761 761 762 762
740 741 741 744 742 745 745 745 746 747 746 745 746 746 749 751 751 749 747 746 745 744 745 744 745 745 746 747 749 750 751 751 752 753 753 754 754 753 754 756 756 757 756
734 734 735 736 738 737 737 738 738 735 736 736 737 737 738 740 740 740 739 737 735 734 735 735 735 736 736 737 737 737 740 742 744 744 746 747 748 748 748 748 748 748 750
726 726 726 725 724 723 726 730 727 728 731 728 727 727 728 727 726 725 724 724 724 725 725 725 725 725 726 728 729 731 731 733 735 737 739 741 741 741 741 741 742 744 746
719 718 717 717 718 717 721 721 720 721 720 719 719 719 719 720 718 717 715 714 713 714 715 715 715 716 717 718 718 720 721 723 727 730 733 734 735 736 735 735 737 739 740
711 711 711 711 710 710 712 712 712 713 712 710 709 710 711 709 708 707 706 705 704 705 705 705 705 707 708 708 709 713 712 715 720 725 728 728 730 731 731 730 731 732 733
Wind_Speed
26 31 28 34 35 33 21 12 20 17 14 13 13 13 13 12 11 9 8 8 6 4 4 5 4 4 3 2 2 2 1 1 4 3 2 1 2 3 3 4 6 7 6
25 30 23 26 24 20 16 18 19 16 14 15 13 13 12 11 9 7 6 6 5 5 5 5 5 4 3 3 3 1 1 1 3 3 2 3 2 2 3 4 4 6 6
22 22 25 27 24 21 21 20 19 16 16 14 14 11 10 8 8 8 7 7 7 7 7 7 5 5 3 3 3 2 3 4 4 5 3 2 3 4 4 7 7 8 10
21 20 20 21 18 14 18 21 19 18 17 13 12 12 11 10 9 9 9 8 8 7 7 6 5 5 5 5 5 5 5 6 4 7 7 6 6 3 6 9 10 9 10
18 17 16 14 14 15 17 16 16 16 15 14 12 10 10 10 10 10 9 9 7 6 7 7 8 7 8 7 7 4 4 7 9 8 8 8 9 8 8 11 13 14 13
14 14 15 17 16 17 16 16 14 13 12 11 10 10 11 10 12 14 10 9 9 9 10 9 8 8 9 10 10 10 9 9 10 12 12 9 7 10 10 11 13 15 15
14 15 15 15 15 14 14 13 12 12 11 12 13 12 12 10 12 15 14 10 11 10 8 8 8 9 9 9 11 12 14 15 16 14 14 14 13 12 10 12 15 16 18
12 14 18 15 14 13 12 13 13 13 13 13 12 12 12 11 12 13 12 9 8 8 9 10 11 11 12 12 12 13 14 15 16 16 17 19 18 15 14 15 17 17 19
14 13 13 14 13 12 13 13 13 12 12 12 11 11 10 9 10 10 10 8 10 13 14 13 13 13 13 16 15 16 16 16 16 19 20 23 24 26 24 19 21 22 19
14 13 13 12 13 13 13 13 12 11 9 9 8 9 9 9 11 13 14 14 14 14 13 14 17 17 16 19 17 15 15 14 12 12 13 17 19 20 19 19 20 21 22
14 13 12 12 13 12 12 11 11 10 9 10 11 11 12 13 14 17 17 17 16 14 14 13 14 14 12 16 19 17 18 15 13 15 17 18 18 19 21 20 18 17 21
14 14 14 13 12 12 12 11 11 13 14 13 13 13 15 15 16 18 19 21 18 16 15 13 9 10 13 13 15 19 20 21 20 20 20 20 19 21 23 19 20 20 20
16 15 15 15 15 14 15 15 15 15 15 15 15 15 16 16 16 19 21 21 22 23 17 15 16 16 18 20 20 20 20 18 20 21 21 21 22 23 18 19 19 20 19
18 17 16 16 16 15 16 16 16 15 16 17 15 15 14 14 15 16 18 20 22 23 22 21 19 17 18 19 20 18 17 17 18 20 20 20 19 19 19 19 18 18 17
18 17 17 17 18 16 17 16 16 16 16 16 16 14 12 13 13 13 12 14 14 14 13 14 15 17 17 17 16 15 15 16 17 17 17 17 15 16 18 17 14 16 18
19 19 18 16 15 16 15 15 18 18 13 18 19 16 14 15 14 11 14 15 17 18 15 17 19 18 18 15 14 13 14 14 15 14 13 13 14 16 15 18 18 20 18
20 17 16 17 15 15 14 13 13 20 21 23 24 25 24 24 21 18 17 18 18 19 17 19 20 17 14 14 14 14 14 13 7 12 13 14 15 17 17 17 17 17 15
22 20 17 16 18 14 15 13 13 13 13 17 20 22 26 27 25 22 23 22 17 20 22 23 20 17 15 14 14 13 12 11 12 13 13 14 14 15 13 15 16 15 15
24 22 22 20 16 18 17 18 15 15 15 15 14 15 19 22 23 22 21 21 21 21 23 19 19 18 16 14 13 13 12 12 13 12 13 12 13 14 13 15 15 13 11
23 24 23 18 21 19 20 20 17 19 18 17 17 17 11 13 13 14 15 16 18 20 21 20 20 19 17 16 14 14 14 14 14 14 13 14 13 14 14 16 13 13 13
22 23 26 26 24 22 22 23 26 26 23 20 20 20 17 14 17 18 18 19 20 21 21 22 22 21 19 17 16 16 17 16 16 15 14 15 15 14 14 16 16 16 16
22 24 23 25 24 23 25 23 24 23 26 20 21 22 20 22 23 23 24 24 24 23 23 22 23 23 22 20 19 18 18 18 16 15 15 15 16 16 16 18 17 19 18
18 19 20 20 19 27 26 21 24 21 21 20 20 21 20 20 22 22 23 24 24 23 22 23 24 25 24 23 23 22 21 20 18 15 14 15 15 17 19 17 20 17 17
18 17 20 21 24 24 17 24 24 19 22 21 20 20 20 22 23 23 23 24 23 23 23 25 26 28 26 25 23 23 22 20 18 16 14 14 15 16 18 18 15 14 17
20 21 21 21 19 18 19 20 19 21 22 22 22 21 20 21 22 24 25 25 23 24 25 26 28 29 29 28 27 26 24 25 22 16 12 12 12 14 16 15 17 18 16
17 17 19 21 19 20 25 25 20 22 24 23 21 19 23 22 25 25 25 26 26 26 26 25 27 29 29 28 30 29 28 25 22 19 13 8 11 12 13 15 14 14 17
Wind_Direction
164 166 182 196 207 215 224 219 203 197 201 199 195 175 174 175 179 177 179 172 167 178 179 183 174 166 159 132 109 111 126 189 255 112 212 176 285 311 315 309 305 300 306
183 182 179 186 189 185 193 192 189 191 191 188 185 177 178 182 183 191 191 190 186 180 178 173 167 159 134 135 177 195 39 330 328 239 80 211 249 307 295 285 301 305 300
189 182 173 173 185 186 188 188 195 203 192 178 178 180 186 186 188 193 191 186 185 179 177 171 163 157 170 195 259 222 209 244 247 285 286 235 286 269 279 266 276 284 289
164 167 165 175 192 201 185 181 175 174 171 168 174 174 178 180 182 183 181 178 181 182 185 188 184 195 204 211 228 232 240 271 246 273 278 275 256 242 279 284 278 276 300
160 159 156 158 166 163 155 156 158 158 165 171 171 176 179 185 186 178 178 183 187 195 203 208 211 216 214 217 248 236 271 251 262 265 270 264 261 282 306 310 302 294 300
146 150 152 156 158 159 157 157 156 158 162 163 168 171 173 174 184 180 182 190 198 207 213 218 228 241 237 240 245 247 244 254 266 285 280 273 290 280 291 299 309 307 310
152 155 153 155 160 161 158 153 160 159 159 161 166 170 177 179 198 193 191 203 210 217 226 234 243 248 233 250 254 253 249 246 246 256 267 273 289 279 291 294 294 298 292
159 161 154 153 164 166 163 165 163 162 167 169 172 178 187 191 191 192 198 214 227 237 247 251 250 254 248 244 249 250 250 249 245 245 251 259 262 267 273 280 285 286 287
163 166 152 162 168 171 177 165 165 168 171 175 178 185 193 197 209 214 226 242 243 244 242 243 245 248 248 248 242 251 255 258 259 252 257 256 258 265 268 275 277 284 282
150 169 164 175 173 175 173 167 170 175 175 183 195 207 217 224 229 229 229 235 236 241 237 239 244 244 242 245 236 242 251 258 261 269 247 262 270 272 275 263 265 270 279
156 163 164 174 176 175 173 174 179 184 190 206 213 222 228 231 235 239 231 232 246 229 236 233 234 233 244 241 244 243 250 260 264 264 265 265 266 267 257 251 251 248 274
164 171 177 178 180 178 182 186 194 205 214 221 225 233 229 232 235 234 231 233 237 245 250 250 255 241 251 252 248 250 254 255 261 265 267 271 277 283 280 275 267 259 261
173 178 181 185 191 190 197 204 209 215 235 221 226 228 235 223 225 233 231 234 236 237 247 254 255 255 257 264 261 258 256 249 252 258 263 265 267 276 282 271 267 261 258
180 183 185 191 197 203 207 213 224 221 216 229 226 231 237 230 226 227 222 232 236 241 245 254 257 259 255 258 263 265 255 251 249 258 264 268 274 276 275 272 273 272 267
188 191 195 200 201 206 221 223 220 225 223 224 227 236 242 235 231 220 227 225 227 227 238 248 255 259 263 264 263 263 257 254 249 254 257 267 275 276 272 274 276 273 279
196 201 202 206 201 213 205 218 232 244 234 241 255 258 257 254 266 246 245 248 243 242 250 254 261 264 266 267 263 256 254 253 257 265 267 262 261 267 276 272 271 278 276
211 210 210 217 213 210 216 228 243 220 226 240 249 248 249 251 252 258 258 265 263 259 246 255 259 259 253 256 251 257 267 266 255 254 260 268 273 277 281 275 272 269 269
213 224 223 219 228 229 231 237 246 251 247 236 239 242 242 243 252 257 260 262 250 250 249 256 256 245 245 245 249 257 257 250 247 255 264 272 273 273 266 264 260 268 258
216 224 220 232 230 233 238 248 244 248 248 251 249 210 233 243 251 255 256 244 247 248 249 240 241 241 237 237 241 243 244 251 255 259 259 261 270 267 273 275 275 258 244
220 226 230 221 232 227 233 241 246 247 243 242 246 248 208 208 239 238 241 238 238 245 251 246 242 235 232 227 229 231 236 237 239 241 247 253 262 271 273 274 266 262 246
222 228 225 233 242 233 233 232 232 237 244 245 242 242 253 261 263 270 263 246 245 250 248 245 242 233 230 225 224 225 233 239 241 245 249 255 259 261 259 257 251 254 262
236 240 236 232 231 240 241 237 239 225 243 251 248 247 241 250 257 260 261 260 257 251 252 248 243 237 227 226 223 228 234 239 240 241 246 252 255 259 242 249 254 255 253
246 244 243 245 241 237 233 237 247 251 253 252 254 254 249 239 251 254 258 261 260 253 251 245 242 235 227 226 224 221 230 234 235 233 241 248 255 258 260 248 246 249 250
246 243 245 247 248 242 226 244 244 245 257 256 253 252 253 256 260 266 266 264 260 256 254 250 240 232 229 226 226 230 226 230 227 226 227 242 255 259 254 262 261 254 248
250 255 256 255 258 257 246 267 257 252 249 244 246 251 267 271 267 267 274 274 267 261 258 251 242 234 230 230 231 230 229 217 207 214 218 232 250 260 259 247 239 239 247
254 255 258 253 251 235 229 236 246 246 248 252 259 264 265 280 281 277 278 276 265 259 260 252 243 237 239 240 234 230 223 211 207 207 207 229 253 255 255 256 261 265 263